Terug naar catalogus

SL-14 DEB

ActiefPO
NORAD 19137·DEBRIS·🇷🇺 Russia

Gelanceerd Oct 26, 1978 vanaf Plesetsk Cosmodrome

Loading…

Volgende Passages (komende 24 uur)

TLE

VersSource: Space-Track

Epoch: Sep 14, 2026, 11:29 UTC

1 19137U 78100K   26257.47865321  .00003512  00000-0  15327-1 0  9995
2 19137  82.2843 163.7426 0090320   5.2135 169.7683 12.79095769147590

Volg SL-14 DEB in realtime met AllMySat

Download on the App Store